Regional Weather Roundup
Issued by NWS

Home | Current Version | Previous Version | Graphics & Text | Print | Product List | Glossary On
Versions: 1 2 3 4 5 6 7 8 9 10 11 12 13 14 15 16 17 18 19 20 21 22 23 24 25 26 27 28 29 30 31 32 33 34 35 36 37 38 39 40 41 42 43 44 45 46 47 48 49 50
000
ASUS43 KTOP 240208
RWRKS

WEATHER ROUNDUP FOR KANSAS
NATIONAL WEATHER SERVICE GOODLAND KS
800 PM CST SUN NOV 23 2014

NOTE:  "FAIR" INDICATES FEW OR NO CLOUDS BELOW 12,000 FEET WITH NO
SIGNIFICANT WEATHER AND/OR OBSTRUCTIONS TO VISIBILITY.

KSZ001>006-013>018-027>032-041>047-240300-
NORTHWEST KANSAS

CITY           SKY/WX    TMP DP  RH WIND       PRES   REMARKS
GOODLAND       CLEAR     33  10  38 NW13      29.81R WCI  24
HAYS           CLOUDY    43  19  39 N14       29.71R
HILL CITY      PTCLDY    39  14  36 NW9       29.74R
RUSSELL        MOCLDY    41  25  53 NW15      29.68R
$$

KSZ061>065-074>080-084>089-240300-
SOUTHWEST KANSAS

CITY           SKY/WX    TMP DP  RH WIND       PRES   REMARKS
DODGE CITY     CLOUDY    41  17  38 NW14      29.75R
ELKHART          N/A    N/A N/A N/A MISG        N/A
GARDEN CITY    PTCLDY    38  13  35 N14       29.78R WCI  30
GREAT BEND     MOCLDY    39  25  56 NW9       29.70R
LIBERAL        MOCLDY    36  14  41 NW8       29.82R
PRATT          CLOUDY    37  30  75 NW10      29.69S WCI  30
$$

KSZ066>073-081>083-090>101-240300-
SOUTHEAST KANSAS

CITY           SKY/WX    TMP DP  RH WIND       PRES   REMARKS
CHANUTE        LGT RAIN  43  40  89 N23G40    29.48R
COFFEYVILLE    CLOUDY    46  40  79 N30G40    29.49R
HUTCHINSON     CLOUDY    43  32  65 NW16      29.64R
MEDICINE LODGE   N/A     45  30  55 NW13      29.68R
NEWTON         CLOUDY    41  32  70 N15G23    29.62R
PARSONS        LGT RAIN  44  41  89 N23G36    29.49R
WICHITA INTL   CLOUDY    43  36  76 NW16      29.62R
WICHITA JABRA  CLOUDY    42  36  79 N21G30    29.60R
WICHITA MCCONL CLOUDY    42  41  95 N20G26    29.61R
WINFIELD       CLOUDY    42  39  89 NW18      29.61R
$$

KSZ007>012-019>026-033>040-048>060-102>105-240300-
NORTHEAST KANSAS

CITY           SKY/WX    TMP DP  RH WIND       PRES   REMARKS
CONCORDIA      CLOUDY    40  32  73 NW9       29.63R
EMPORIA        CLOUDY    41  38  89 NW14G24   29.55R
LAWRENCE       LGT RAIN  41  37  86 NW22      29.51R
MANHATTAN      CLOUDY    43  35  73 NW6       29.59S
MARYSVILLE     CLOUDY    41  34  75 NW13      29.58R
OLATHE IND     LGT RAIN  40  38  93 NW29G39   29.47R WCI  29
OLATHE EXE     LGT RAIN  42  39  89 N23G32    29.44R
SALINA         CLOUDY    41  35  79 NW13      29.64R
TOPEKA BILLARD CLOUDY    44  38  79 NW17      29.53R
TOPEKA FORBES  CLOUDY    43  37  79 NW23G32   29.51S
$$


USA.gov is the U.S. government's official web portal to all federal, state and local government web resources and services.